N5V LIPB-LIMJ

Flight info

Callsign N5V
Flight time N/A
Altitude 35000
Route ADOSA DCT BEKAN DCT MONEB
Aircraft C750/M-SBDE3FGHRWXY/S

Departure

Time 2026-04-21 19:41
Airport Bolzano Airport (LIPB)

Arrival

Time N/A
Airport Genoa Cristoforo Colombo Airport (LIMJ)
Time Latitude Longitude Altitude Speed Heading
2026-04-21 19:18 46.46464 11.32944 784 ft 0 kts 99°
2026-04-21 19:32 46.46463 11.32945 756 ft 0 kts 124°
2026-04-21 19:32 46.46457 11.32942 756 ft 2 kts 203°
2026-04-21 19:32 46.46468 11.32906 803 ft 8 kts 303°
2026-04-21 19:33 46.46506 11.32889 784 ft 12 kts
2026-04-21 19:33 46.46605 11.32918 784 ft 9 kts 10°
2026-04-21 19:33 46.46664 11.32929 784 ft 5 kts 343°
2026-04-21 19:33 46.46670 11.32920 784 ft 0 kts 312°
2026-04-21 19:40 46.46673 11.32911 784 ft 2 kts 287°
2026-04-21 19:40 46.46684 11.32839 784 ft 11 kts 274°
2026-04-21 19:41 46.46647 11.32805 784 ft 4 kts 194°
2026-04-21 19:41 46.46474 11.32757 783 ft 76 kts 190°
2026-04-21 19:41 46.45628 11.32529 891 ft 147 kts 191°
2026-04-21 19:41 46.44607 11.32198 1520 ft 157 kts 192°
2026-04-21 19:42 46.43508 11.31899 2305 ft 164 kts 188°
2026-04-21 19:42 46.42371 11.31309 2838 ft 187 kts 211°
2026-04-21 19:42 46.41252 11.30332 3966 ft 184 kts 209°
2026-04-21 19:42 46.40140 11.29466 5154 ft 181 kts 207°
2026-04-21 19:43 46.39015 11.28592 6171 ft 186 kts 207°
2026-04-21 19:43 46.37792 11.27974 7147 ft 190 kts 196°
2026-04-21 19:43 46.36506 11.27421 8189 ft 195 kts 197°
2026-04-21 19:43 46.35192 11.26825 9235 ft 201 kts 198°
2026-04-21 19:44 46.33836 11.26209 10170 ft 207 kts 199°
2026-04-21 19:44 46.32444 11.25580 11063 ft 210 kts 200°
2026-04-21 19:44 46.31019 11.24936 11894 ft 221 kts 200°
2026-04-21 19:44 46.29429 11.24208 12039 ft 263 kts 200°
2026-04-21 19:45 46.28215 11.23653 12150 ft 286 kts 200°
2026-04-21 19:45 46.25777 11.22577 14177 ft 254 kts 201°
2026-04-21 19:45 46.24161 11.21857 15331 ft 245 kts 202°
2026-04-21 19:45 46.22504 11.21092 16063 ft 253 kts 203°
2026-04-21 19:46 46.20822 11.20331 17084 ft 254 kts 203°
2026-04-21 19:46 46.19123 11.19570 18048 ft 257 kts 204°
2026-04-21 19:46 46.17399 11.18794 18932 ft 261 kts 204°
2026-04-21 19:46 46.15659 11.18009 19776 ft 264 kts 205°
2026-04-21 19:47 46.13884 11.17214 20644 ft 268 kts 205°
2026-04-21 19:47 46.12120 11.16423 21485 ft 271 kts 205°
2026-04-21 19:47 46.10300 11.15605 22332 ft 275 kts 206°
2026-04-21 19:47 46.08452 11.14777 23162 ft 279 kts 206°
2026-04-21 19:48 46.06576 11.13941 23974 ft 283 kts 207°
2026-04-21 19:48 46.04625 11.13268 24383 ft 306 kts 200°
2026-04-21 19:48 46.02430 11.12693 24453 ft 335 kts 200°
2026-04-21 19:48 46.00038 11.12079 24506 ft 362 kts 201°
2026-04-21 19:49 45.97471 11.11388 24553 ft 387 kts 200°
2026-04-21 19:49 45.94746 11.10649 24741 ft 407 kts 200°
2026-04-21 19:49 45.91896 11.09905 25017 ft 423 kts 199°
2026-04-21 19:49 45.88942 11.09124 25276 ft 439 kts 199°
2026-04-21 19:50 45.86928 11.08587 25441 ft 448 kts 199°
2026-04-21 19:50 45.82785 11.07485 25751 ft 465 kts 200°
2026-04-21 19:50 45.79560 11.06630 26043 ft 475 kts 200°
2026-04-21 19:50 45.76359 11.05518 26759 ft 462 kts 207°
2026-04-21 19:51 45.73433 11.03969 28003 ft 440 kts 214°